Flag for U.S.A. Weather past 2 weeks in Yonkers, New York, U.S.A.

Now
21 °F

Light snow. Overcast.


Feels Like: 11 °F
Forecast: 19 / 31 °F
Wind: 9 mph from North

Location: Teterboro Airport

Current Time: Mar 5, 2015 at 6:32:45 PM

Latest Report: Mar 5, 2015 at 5:51 PM


Visibility: 4 mi

Pressure: 30.23 "Hg

Humidity: 74%

Dew point: 14 °F

Location of YonkersLocation

Historic Weather in Yonkers — Graph

°F

Yonkers temperature yesterday

Maximum temperature yesterday: 48 °F (at 2:51 PM)
Minimum temperature yesterday: 35 °F (at 12:51 AM)
Average temperature yesterday: 40 °F

Past Weeks' High & Low Weather Summary

 TemperatureHumidityPressure
High48 °F (Mar 4, 2:51 PM)93% (Feb 21, 5:54 PM)30.82 "Hg (Feb 21, 5:54 PM)
Low1 °F (Feb 20, 5:51 AM)26% (Feb 28, 2:51 PM)29.72 "Hg (Feb 19, 12:51 AM)
Average24 °F58%30.19 "Hg
* Reported Feb 18 4:51 PM — Mar 5 4:58 PM, Yonkers, Weather by CustomWeather, © 2015

Note: Actual official high and low records may vary slightly from our data, if they occured in-between our weather recording intervals... More about our weather records

Advertising

Yonkers weather history for previous 24 hours

 ConditionsComfort  
Time TempWeatherWind HumidityBarometerVisibility
4:58 PM
Thu, Mar 5
19 °FLight snow. Ice fog.7 mph86%30.21 "Hg2 mi
4:00 PM21 °FSnow. Ice fog.8 mph80%30.20 "Hg1 mi
2:55 PM23 °FLight snow. Mostly cloudy.6 mph74%30.17 "Hg2 mi
1:59 PM23 °FLight snow. Mostly cloudy.5 mph80%30.15 "Hg5 mi
12:58 PM21 °FSnow. Ice fog.6 mph86%30.17 "Hg1 mi
11:54 AM23 °FSnow. Ice fog.13 mph86%30.17 "Hg1 mi
10:51 AM25 °FHeavy snow. Ice fog.12 mph85%30.13 "Hg1 mi
9:53 AM27 °FHeavy snow. Ice fog.5 mph93%30.13 "Hg1 mi
9:01 AM28 °FSnow. Ice fog.7 mph86%30.11 "Hg0 mi
8:03 AM32 °FSnow. Mostly cloudy.9 mph93%30.06 "Hg0 mi
7:58 AM32 °FSnow. More clouds than sun.3 mph93%30.06 "Hg1 mi
6:51 AM32 °FLight snow. Ice fog.5 mph92%30.02 "Hg1 mi
5:51 AM33 °FLight snow. Fog.3 mph88%29.98 "Hg1 mi
4:51 AM34 °FLight snow. Overcast.7 mph82%29.98 "Hg3 mi
3:58 AM34 °FLight snow. Fog.5 mph87%29.95 "Hg3 mi
2:51 AM36 °FRain. Mostly cloudy.10 mph82%29.92 "Hg6 mi
1:51 AM38 °FLight rain. Overcast.No wind90%29.89 "Hg7 mi
12:51 AM39 °FLight rain. Overcast.No wind89%29.89 "Hg7 mi
11:51 PM
Wed, Mar 4
40 °FLight rain. Fog.No wind89%29.90 "Hg5 mi
10:51 PM40 °FRain. Fog.3 mph93%29.91 "Hg3 mi
9:51 PM40 °FRain. Fog.8 mph93%29.89 "Hg3 mi
8:51 PM39 °FLight rain. Overcast.7 mph93%29.89 "Hg4 mi
7:51 PM41 °FFog.6 mph86%29.87 "Hg4 mi
6:51 PM41 °FFog.8 mph89%29.87 "Hg6 mi
Weather by CustomWeather, © 2015

See weather overviewHow to use our weather pages